Startseite
Über Mich
AHP4
Galerie
Sehschlangen
Tourenbuch
Bookmarks
Elektronik
Bewertung
Geschichten
[Tagesmessung] [Jahreswerte] [Information]

Messwerte vom 04.01.2022

Die letzten Messwerte von 23:58:47 Uhr:
KategorieMesswert
Temperatur [°C]3
Luftdruck [mBar]980
Sonneneinstrahlung0
Wind [km/h]1 aus Süd
Niederschlag [l/m²]0
rel.Luftfeucht.96.6%
CO2 [ppm]466

Diagramme
Messwerte vom 04.01.2022
Tagesaggregation
KategorieMinimumMaximumSchnittSumme
Temperatur [°C]286.2208
Luftdruck [mBar]976987980.3917
Sonneneinstrahlung21049.8896
Wind [km/h]18
rF [%]89.696.695.52
Niederschlag [l/m²]0.2575
CO2 [ppm]466799648.0
Einordnung alsKalter Tag

Messungen an benachbarten Tagen: Zur Jahresaggregation 2022
Tabelle aller Messwerte
UhrzeitTemperatur [°C]Luftdruck [mBar]SonneWind [km/h]RichtungRegen [l/m²]rF [%]CO2 [ppm]
00:01:46 7 987 0 1 SO 0 96.6 580
00:04:49 7 987 0 4 SO 0 96.6 585
00:07:45 7 987 0 2 S 0 96.6 591
00:10:48 7 987 0 3 SW 0 96.6 584
00:13:47 7 987 0 0 N 0 96.6 586
00:16:44 7 987 0 0 S 0 96.6 583
00:19:45 7 987 0 1 S 0 96.6 585
00:22:48 7 987 0 2 SO 0 96.6 592
00:25:47 7 987 0 1 S 0 96.6 596
00:28:48 7 987 0 2 O 0 96.6 597
00:31:46 7 987 0 1 S 0 96.6 600
00:34:45 7 986 0 1 O 0 96.6 592
00:37:48 7 987 0 0 SO 0 96.6 586
00:40:46 7 987 0 4 S 0 96.6 585
00:43:47 7 987 0 1 S 0 96.6 588
00:46:47 7 987 0 0 SW 0 96.6 589
00:49:49 7 987 0 3 SW 0 96.6 600
00:52:47 7 987 0 5 S 0 96.6 600
00:55:46 7 987 0 2 SW 0 96.5 597
00:58:45 7 986 0 2 S 0 96.3 594
01:01:47 7 986 0 3 W 0 96.1 590
01:04:45 7 986 0 2 W 0 96.1 594
01:07:48 7 986 0 2 SW 0 96.2 591
01:10:45 7 986 0 3 S 0 96.2 597
01:13:46 7 987 0 1 N 0 96.1 597
01:16:45 7 987 0 0 SO 0 96.1 597
01:19:45 7 986 0 2 SO 0 96.1 595
01:22:47 7 985 0 2 SO 0 96.2 599
01:25:46 7 986 0 1 S 0 96.3 594
01:28:46 7 986 0 0 S 0 96.4 594
01:31:47 7 986 0 1 SW 0 96.5 589
01:34:46 7 985 0 2 O 0 96.6 591
01:37:47 7 986 0 3 SO 0 96.5 586
01:40:46 7 985 0 1 S 0 96.5 591
01:43:45 7 986 0 2 S 0 96.5 589
01:46:46 7 986 0 2 S 0 96.5 588
01:49:46 7 985 0 3 SW 0 96.5 591
01:52:47 7 985 0 2 SO 0 96.5 591
01:55:47 7 986 0 3 S 0 96.5 600
01:58:46 7 985 0 2 SW 0 96.5 598
02:01:45 7 985 0 0 O 0 96.6 600
02:04:46 7 985 0 2 SO 0 96.6 597
02:07:46 7 985 0 0 S 0 96.6 595
02:10:46 7 985 0 0 S 0 96.6 592
02:13:46 7 984 0 1 0 96.6 586
02:16:48 7 985 0 1 SO 0 96.6 585
02:19:44 7 985 0 1 S 0 96.6 586
02:22:47 7 984 0 0 O 0 96.6 589
02:25:48 7 984 0 0 SO 0 96.6 589
02:28:46 7 984 0 0 S 0 96.6 583
02:31:46 7 984 0 0 S 0 96.6 583
02:34:47 7 984 0 0 SO 0 96.6 585
02:37:46 7 984 0 1 S 0 96.6 590
02:40:47 7 984 0 1 S 0 96.6 582
02:43:46 7 985 0 2 S 0 96.6 580
02:46:46 7 984 0 2 W 0 96.6 577
02:49:46 7 984 0 2 SW 0 96.6 579
02:52:46 7 984 0 0 S 0 96.6 573
02:55:47 7 984 0 2 NO 0 96.6 580
02:58:46 7 984 0 0 S 0 96.6 580
03:01:46 7 984 0 1 SW 0 96.6 580
03:04:45 7 984 0 1 S 0 96.6 588
03:07:46 7 984 0 5 SO 0 96.6 590
03:10:46 7 984 0 1 W 0 96.6 582
03:13:46 7 984 0 4 S 0 96.6 585
03:16:47 7 984 0 3 SW 0 96.6 584
03:19:46 7 983 0 3 SW 0 96.6 577
03:22:47 7 984 0 2 SW 0 96.6 571
03:25:45 7 984 0 1 S 0 96.6 572
03:28:46 7 984 0 1 S 0 96.6 574
03:31:47 7 984 0 3 S 0 96.6 573
03:34:46 7 984 0 1 SO 0 96.6 571
03:37:46 7 983 0 3 SO 0 96.6 579
03:40:46 7 984 0 3 SO 0 96.6 580
03:43:47 7 984 0 1 SO 0 96.6 580
03:46:45 7 984 0 2 S 0 96.6 577
03:49:48 7 984 0 1 SW 0 96.6 579
03:52:48 7 984 0 2 S 0 96.6 583
03:55:46 7 984 0 2 S 0 96.6 588
03:58:45 7 984 0 2 SO 0 96.6 576
04:01:48 7 984 0 1 NW 0 96.6 574
04:04:48 7 984 0 1 SW 0 96.6 574
04:07:47 7 984 0 1 SO 0 96.6 575
04:10:49 7 984 0 1 SW 0 96.6 577
04:13:48 7 983 0 2 S 0 96.6 586
04:16:47 7 983 0 0 SO 0 96.6 583
04:19:49 7 983 0 1 SO 0 96.6 580
04:22:45 7 983 0 1 W 0 96.6 584
04:25:48 7 984 0 2 SW 0 96.6 574
04:28:49 7 983 0 2 SW 0 96.6 575
04:31:48 7 984 0 6 SW 0 96.6 575
04:34:45 7 983 0 7 S 0 96.6 577
04:37:47 7 984 0 6 SO 0 96.6 580
04:40:48 7 983 0 2 SO 0 96.6 584
04:43:48 7 983 0 2 SO 0 96.6 580
04:46:48 7 983 0 1 SW 0 96.6 579
04:49:46 7 983 0 3 SO 0 96.6 574
04:52:46 7 984 0 2 SW 0 96.6 577
04:55:47 7 982 0 3 S 0 96.6 583
04:58:46 7 983 0 2 SO 0 96.6 588
05:01:45 7 982 0 2 S 0 96.6 594
05:04:48 7 983 0 3 S 0 96.6 588
05:07:46 7 983 0 2 S 0 96.6 582
05:10:47 7 983 0 3 SO 0 96.6 578
05:13:47 7 982 0 4 SW 0 96.6 579
05:16:47 7 983 0 1 SO 0 96.6 579
05:19:45 7 983 0 2 S 0 96.6 579
05:22:47 7 982 0 5 S 0 96.6 582
05:25:47 7 983 0 2 S 0 96.6 583
05:28:48 7 982 0 3 S 0 96.6 592
05:31:47 7 982 0 4 S 0 96.6 591
05:34:48 7 982 0 3 SO 0 96.6 583
05:37:45 7 982 0 3 S 0 96.6 579
05:40:45 7 982 0 1 S 0 96.6 577
05:43:45 7 982 0 2 S 0 96.6 577
05:46:45 7 982 0 4 S 0 96.6 573
05:49:48 7 983 0 5 SO 0 96.6 572
05:52:46 7 982 0 3 S 0 96.6 575
05:55:49 7 982 0 4 SW 0 96.6 569
05:58:45 7 981 0 4 SO 0 96.6 571
06:01:46 7 981 0 3 S 0 96.6 571
06:04:49 7 981 0 1 SW 0 96.6 569
06:07:49 7 981 0 4 S 0 96.5 565
06:10:48 7 980 0 4 SO 0 96.5 562
06:13:45 7 981 0 3 S 0 96.4 564
06:16:47 7 981 0 4 SO 0 96.4 571
06:19:46 7 980 0 8 S 0 96.3 565
06:22:48 7 980 0 2 SW 0 96.2 571
06:25:48 7 981 0 3 SW 0 96.2 568
06:28:46 7 981 0 10 S 0 96.1 568
06:31:47 7 980 0 5 O 0 96 565
06:34:47 7 981 0 9 SO 0 96 565
06:37:46 7 981 0 4 SO 0 96 568
06:40:48 7 980 0 2 W 0 96.1 567
06:43:46 7 980 0 1 S 0 96.2 556
06:46:46 7 981 0 2 S 0 96.2 562
06:49:45 7 980 0 6 S 0 96.1 559
06:52:48 7 981 0 3 SO 0 96.1 559
06:55:48 7 980 0 3 SO 0 96.1 568
06:58:47 7 980 0 2 SW 0 96.3 574
07:01:45 7 980 0 2 S 0 96.4 574
07:04:47 7 980 0 3 O 0 96.4 568
07:07:45 7 981 0 0 S 0 96.4 557
07:10:46 7 980 0 1 SW 0 96.4 545
07:13:47 7 980 0 4 SO 0 96.4 548
07:16:46 7 980 0 2 W 0 96.4 560
07:19:46 7 980 0 2 SO 0 96.5 577
07:22:47 7 980 0 3 SW 0 96.5 589
07:25:43 7 980 0 4 S 0 96.6 597
07:28:47 7 980 0 4 SO 0 96.6 598
07:31:45 6 980 0 5 W 0 96.6 606
07:34:45 6 980 0 7 0 96.6 603
07:37:47 6 981 0 4 SO 0 96.6 604
07:40:46 7 980 0 1 S 0 96.6 609
07:43:47 7 980 0 2 W 0 96.6 609
07:46:45 7 980 0 3 W 0 96.6 614
07:49:46 7 980 0 2 S 0 96.6 606
07:52:45 7 980 0 3 W 0 96.6 606
07:55:46 7 980 0 1 SO 0 96.6 603
07:58:46 7 980 0 3 NW 0 96.6 615
08:01:48 7 980 0 6 SO 0 96.6 633
08:04:47 7 980 4 3 SO 0 96.6 632
08:07:47 7 980 6 2 SO 0 96.6 635
08:10:47 7 980 7 1 SO 0 96.6 647
08:13:47 7 980 8 1 SO 0 96.6 653
08:16:49 7 980 13 2 SO 0 96.6 650
08:19:49 7 980 18 1 S 0 96.6 648
08:22:46 7 980 20 2 S 0 96.6 652
08:25:46 7 980 25 1 SW 0 96.6 650
08:28:48 7 980 27 7 SO 0 96.5 653
08:31:46 7 980 37 2 S 0 96.3 655
08:34:48 7 980 43 2 S 0 96.2 665
08:37:45 7 980 49 1 S 0 96.1 665
08:40:46 7 980 58 3 O 0 96.1 670
08:43:48 7 980 56 2 SW 0 96 664
08:46:48 7 980 65 5 S 0 96 664
08:49:45 7 980 74 1 S 0 95.9 661
08:52:46 7 980 77 2 O 0 95.9 661
08:55:46 7 980 87 1 SW 0 95.9 664
08:58:49 7 980 87 0 S 0 95.9 669
09:01:48 7 980 82 2 SW 0 96 671
09:04:47 7 980 76 1 SW 0 96 671
09:07:47 7 980 93 2 S 0 96 680
09:10:48 7 980 97 1 SO 0 96.1 680
09:13:48 7 980 88 1 S 0 96.1 685
09:16:50 7 980 108 0 S 0 96.2 683
09:19:49 7 980 119 0 SO 0 96.4 679
09:22:48 7 980 125 0 SO 0 96.3 686
09:25:48 7 980 106 1 S 0 96.4 684
09:28:48 7 980 112 1 SW 0 96.4 685
09:31:50 7 980 109 5 SW 0 96.5 683
09:34:48 7 980 120 0 S 0 96.5 685
09:37:50 7 980 117 0 SW 0 96.5 682
09:40:47 7 980 121 0 O 0 96.6 688
09:43:48 7 980 127 0 SO 0 96.6 685
09:46:47 7 980 116 0 S 0 96.6 691
09:49:48 7 980 125 0 SO 0 96.6 690
09:52:47 7 980 139 0 S 0 96.6 686
09:55:48 7 980 145 0 S 0 96.6 677
09:58:49 7 980 146 0 S 0 96.6 673
10:01:50 7 980 127 1 SO 0 96.6 677
10:04:50 7 980 129 1 S 0 96.6 682
10:07:48 7 980 128 2 SW 0 96.6 685
10:10:46 7 980 121 2 S 0 96.6 694
10:13:46 7 980 130 0 S 0 96.5 693
10:16:49 7 980 127 1 S 0 96.5 699
10:19:48 7 980 129 2 SO 0 96.6 697
10:22:48 7 980 140 0 SW 0 96.6 697
10:25:48 7 979 141 0 S 0 96.6 706
10:28:48 7 980 144 5 SW 0 96.6 708
10:31:46 7 979 155 4 S 0 96.6 692
10:34:47 7 980 161 2 S 0 96.6 651
10:37:48 7 980 166 2 SW 0 96.6 644
10:40:47 7 979 169 5 S 0 96.6 658
10:43:47 7 979 170 2 N 0 96.6 666
10:46:46 7 979 171 3 S 0 96.6 674
10:49:47 7 979 171 0 NO 0 96.6 676
10:52:47 7 979 173 2 SW 0 96.6 678
10:55:44 7 979 174 1 O 0 96.6 671
10:58:46 7 979 175 0 S 0 96.6 677
11:01:48 7 979 176 2 SO 0 96.6 680
11:04:47 7 980 175 0 SW 0 96.6 679
11:07:50 7 980 173 0 SO 0 96.6 682
11:10:47 7 979 172 1 S 0 96.6 685
11:13:45 7 979 172 1 S 0 96.6 688
11:16:47 7 979 174 0 SW 0 96.6 691
11:19:48 7 979 176 1 W 0 96.4 683
11:22:45 7 980 178 1 S 0 96.2 682
11:25:47 7 979 186 1 O 0 96.2 674
11:28:47 7 979 192 3 SO 0 96.1 677
11:31:48 7 979 196 3 W 0 96.1 668
11:34:46 7 980 202 0 S 0 96 664
11:37:47 7 979 198 1 0 96 653
11:40:47 8 979 192 3 S 0 95.7 648
11:43:47 8 979 187 3 SW 0 95.6 650
11:46:45 8 979 189 3 S 0 95.5 652
11:49:46 8 980 188 4 S 0 95.1 651
11:52:45 8 979 193 1 SO 0 94.7 653
11:55:49 8 979 198 2 SW 0 94.3 652
11:58:48 8 979 199 3 W 0 94.3 668
12:01:49 8 979 193 2 SO 0 94.3 665
12:04:47 8 978 192 3 SW 0 94.3 661
12:07:50 8 979 194 1 S 0 94.1 659
12:10:52 8 979 191 2 SO 0 93.6 674
12:13:46 8 980 188 3 S 0 93.5 677
12:16:48 8 979 186 5 SW 0 93.2 672
12:19:49 8 979 187 1 SO 0 93.1 662
12:22:51 8 977 178 1 S 0 93.2 660
12:25:45 8 978 175 2 O 0 93.2 655
12:28:49 8 978 172 3 SO 0 93 647
12:31:47 8 978 183 2 W 0 93 648
12:34:47 8 978 185 2 SW 0 93.1 649
12:37:48 8 978 185 2 SO 0 93.2 671
12:40:48 8 977 185 2 SO 0 92.9 679
12:43:48 8 979 183 2 SW 0 92.8 682
12:46:49 8 978 183 2 S 0 92.7 682
12:49:48 8 977 178 2 S 0 92.8 682
12:52:45 8 978 185 3 SO 0 92.7 684
12:55:47 8 978 188 5 SW 0 92.6 684
12:58:48 8 978 190 3 SW 0 92.4 697
13:01:49 8 978 192 2 W 0 92.2 710
13:04:48 8 977 194 3 S 0 92.4 715
13:07:49 8 978 199 3 SW 0 92.4 717
13:10:48 8 978 201 3 S 0 92.2 718
13:13:48 8 978 210 10 S 0 91.9 718
13:16:44 8 977 209 5 S 0 91.7 715
13:19:48 8 977 208 7 SO 0 91.8 708
13:22:48 8 977 204 4 SO 0 91 702
13:25:48 8 977 203 1 W 0 90.6 711
13:28:49 8 976 204 1 SW 0 90.7 719
13:31:47 8 977 200 2 SO 0 90.6 725
13:34:46 8 976 190 4 O 0 90.6 727
13:37:46 8 977 188 4 S 0 90.6 730
13:40:50 8 977 186 3 SO 0 90.9 730
13:43:48 8 977 186 0 W 0 90.8 720
13:46:46 8 977 175 5 S 0 90.8 721
13:49:47 8 977 163 3 NW 0 90.5 723
13:52:46 8 976 172 9 W 0 90.5 720
13:55:50 8 977 174 13 SW 0 90.6 726
13:58:47 8 977 186 2 SO 0 90.6 720
14:01:49 8 977 184 0 SW 0 91 723
14:04:46 8 977 178 4 O 0 91 731
14:07:49 8 978 180 2 SO 0 90.9 730
14:10:47 8 976 181 8 SO 0 90.9 729
14:13:49 8 977 179 2 S 0 90.5 727
14:16:46 8 977 181 3 SO 0 90.5 739
14:19:46 8 976 186 2 SO 0 90.4 741
14:22:48 8 977 182 3 O 0 90.3 741
14:25:46 8 976 191 0 S 0 90.3 748
14:28:49 8 977 188 2 SW 0 90.3 750
14:31:46 8 977 179 4 N 0 90.1 742
14:34:48 8 977 170 5 NW 0 89.6 741
14:37:46 8 977 167 5 S 0 89.8 744
14:40:47 8 976 174 5 SO 0 90 746
14:43:48 8 977 170 4 W 0 90 750
14:46:47 8 977 153 3 SW 0 90.1 755
14:49:45 8 977 136 1 S 0 90.1 755
14:52:46 8 977 102 5 O 0 90 753
14:55:46 8 977 107 2 S 0 90.1 764
14:58:46 8 977 134 4 SW 0 90.2 774
15:01:48 8 977 156 5 NW 0 90.5 780
15:04:45 8 977 160 6 S 0 90.5 773
15:07:48 8 977 141 1 NO 0 90.3 764
15:10:48 8 977 134 2 SO 0 90.4 773
15:13:46 7 976 127 1 W 0 90.5 777
15:16:47 7 976 121 4 SW 0 90.4 785
15:19:46 7 977 126 6 O 0 90.5 776
15:22:47 7 977 146 6 SW 0 90.6 778
15:25:46 7 976 173 1 W 0 90.7 779
15:28:48 7 977 175 1 W 0 90.9 779
15:31:49 7 976 171 4 S 0 90.9 782
15:34:46 7 976 170 7 SO 0 91 787
15:37:47 7 976 162 8 SO 0 91.3 788
15:40:48 7 976 144 2 SW 0 91.6 799
15:43:48 7 976 127 4 SW 0 91.8 797
15:46:45 7 977 113 3 O 0 91.9 793
15:49:45 7 977 93 6 S 0 91.8 791
15:52:45 7 977 78 2 S 0 91.8 750
15:55:46 7 976 88 5 SW 0 91.9 699
15:58:47 7 977 70 5 S 0 91.7 713
16:01:46 7 977 69 11 SW 0 91.6 743
16:04:48 7 977 70 4 NO 0 91.6 751
16:07:49 7 977 88 3 SO 0 91.5 769
16:10:48 7 977 84 5 SO 0 91.3 773
16:13:45 7 977 82 7 SO 0 91.3 770
16:16:45 7 977 78 4 S 0 91.7 776
16:19:46 7 977 70 18 W 0 91.9 770
16:22:47 7 977 52 2 NO 0 92.1 770
16:25:46 7 977 30 3 NO 0 92.2 779
16:28:47 7 977 14 6 SW 0 92.2 784
16:31:45 7 977 5 4 W 0 92.2 778
16:34:47 7 977 0 13 NW 0 92.7 785
16:37:46 7 977 3 9 SW 0.2575 93.8 777
16:40:46 7 978 3 5 W 0 93.9 767
16:43:47 6 978 4 7 SW 0 94.9 759
16:46:44 6 978 4 4 NW 0 95.6 764
16:49:46 5 978 0 6 W 0 96.4 768
16:52:47 5 978 0 7 NW 0 96.6 788
16:55:48 5 978 0 3 W 0 96.6 782
16:58:45 5 978 0 2 W 0 96.6 779
17:01:46 5 978 0 4 SW 0 96.6 774
17:04:45 5 977 0 8 W 0 96.6 774
17:07:45 5 977 0 7 W 0 96.6 741
17:10:46 5 978 0 3 SW 0 96.6 746
17:13:44 5 977 0 1 W 0 96.6 749
17:16:46 4 978 0 2 S 0 96.6 747
17:19:45 4 978 0 3 S 0 96.6 744
17:22:46 4 979 0 2 SW 0 96.6 734
17:25:49 4 979 0 3 SW 0 96.6 738
17:28:46 4 978 0 2 SW 0 96.6 736
17:31:46 5 978 0 4 S 0 96.6 740
17:34:46 5 978 0 2 SW 0 96.6 731
17:37:44 5 979 0 2 W 0 96.6 734
17:40:45 5 978 0 2 SW 0 96.6 743
17:43:47 5 980 0 10 W 0 96.6 741
17:46:46 5 979 0 6 W 0 96.6 750
17:49:45 5 978 0 2 N 0 96.6 747
17:52:46 5 979 0 3 W 0 96.6 750
17:55:44 5 979 0 6 W 0 96.6 743
17:58:45 5 979 0 7 SO 0 96.6 741
18:01:45 5 978 0 0 W 0 96.6 739
18:04:48 5 979 0 5 SW 0 96.6 738
18:07:46 5 978 0 3 SW 0 96.6 746
18:10:45 5 979 0 3 S 0 96.6 741
18:13:48 5 979 0 2 SO 0 96.6 749
18:16:46 5 978 0 0 W 0 96.6 744
18:19:45 5 979 0 4 SW 0 96.6 744
18:22:45 5 978 0 4 W 0 96.6 747
18:25:46 5 979 0 5 NW 0 96.6 746
18:28:46 5 979 0 4 NW 0 96.6 746
18:31:46 5 979 0 4 W 0 96.6 740
18:34:46 5 979 0 7 SW 0 96.6 750
18:37:51 5 979 0 1 SW 0 96.6 750
18:40:47 5 979 0 3 NW 0 96.6 744
18:43:49 5 979 0 9 NW 0 96.6 735
18:46:48 5 980 0 3 SW 0 96.6 735
18:49:46 5 979 0 7 W 0 96.6 732
18:52:47 5 980 0 6 SW 0 96.6 716
18:55:47 5 980 0 10 NW 0 96.6 694
18:58:46 5 979 0 3 SW 0 96.6 673
19:01:47 5 979 0 4 NW 0 96.6 673
19:04:45 5 980 0 7 W 0 96.6 670
19:07:50 5 980 0 5 SW 0 96.6 670
19:10:49 5 980 0 2 SW 0 96.6 676
19:13:47 5 980 0 7 SW 0 96.6 676
19:16:45 5 980 0 2 NW 0 96.6 679
19:19:47 5 980 0 7 NW 0 96.6 676
19:22:46 5 979 0 4 SW 0 96.6 679
19:25:45 5 980 0 4 S 0 96.6 676
19:28:48 5 980 0 2 W 0 96.6 682
19:31:44 5 980 0 4 W 0 96.6 674
19:34:49 5 980 0 2 NW 0 96.6 682
19:37:48 5 980 0 3 W 0 96.6 679
19:40:46 5 980 0 3 N 0 96.6 676
19:43:47 5 980 0 4 W 0 96.6 667
19:46:47 5 980 0 3 SW 0 96.6 662
19:49:47 5 980 0 1 SW 0 96.6 659
19:52:46 5 980 0 3 O 0 96.6 665
19:55:49 5 980 0 9 W 0 96.6 660
19:58:46 5 980 0 3 S 0 96.6 662
20:01:47 5 980 0 3 SW 0 96.6 664
20:04:47 5 980 0 3 SO 0 96.6 665
20:07:48 5 980 0 2 W 0 96.6 659
20:10:47 5 980 0 8 NW 0 96.6 659
20:13:48 5 980 0 7 W 0 96.6 648
20:16:47 5 980 0 4 SW 0 96.6 651
20:19:46 5 980 0 7 W 0 96.6 661
20:22:49 5 980 0 4 NW 0 96.6 670
20:25:49 5 980 0 7 NW 0 96.6 666
20:28:47 5 980 0 8 NW 0 96.6 658
20:31:46 5 980 0 3 W 0 96.6 644
20:34:46 5 980 0 5 W 0 96.6 641
20:37:46 5 980 0 3 W 0 96.6 644
20:40:47 5 980 0 1 W 0 96.6 643
20:43:49 5 980 0 5 NW 0 96.6 647
20:46:50 4 980 0 3 NW 0 96.6 654
20:49:48 4 980 0 3 SW 0 96.6 659
20:52:48 4 980 0 3 W 0 96.6 659
20:55:48 4 980 0 3 W 0 96.6 645
20:58:47 4 980 0 6 W 0 96.6 634
21:01:49 4 980 0 6 SW 0 96.6 654
21:04:46 4 980 0 2 S 0 96.6 647
21:07:46 4 980 0 1 SW 0 96.6 646
21:10:47 4 980 0 1 SW 0 96.6 649
21:13:47 4 980 0 2 SW 0 96.6 642
21:16:45 4 980 0 2 W 0 96.6 644
21:19:47 4 980 0 7 SW 0 96.6 642
21:22:48 4 980 0 3 S 0 96.6 641
21:25:49 4 980 0 5 SW 0 96.6 646
21:28:46 4 980 0 4 SW 0 96.6 647
21:31:48 3 980 0 5 O 0 96.6 650
21:34:45 3 980 0 5 W 0 96.6 647
21:37:49 3 980 0 3 NW 0 96.6 644
21:40:51 3 980 0 2 S 0 96.6 641
21:43:48 3 980 0 4 NW 0 96.6 637
21:46:48 3 980 0 6 SW 0 96.6 638
21:49:49 3 980 0 4 NW 0 96.6 638
21:52:46 3 980 0 1 W 0 96.6 639
21:55:45 3 980 0 0 SW 0 96.6 642
21:58:46 3 980 0 2 SW 0 96.6 647
22:01:47 3 980 0 3 SW 0 96.6 644
22:04:46 2 980 0 2 SW 0 96.6 644
22:07:52 2 980 0 0 NW 0 96.6 648
22:10:47 2 980 0 2 SO 0 96.6 644
22:13:49 2 980 0 3 NW 0 96.6 647
22:16:48 2 980 0 2 SW 0 96.6 645
22:19:48 2 980 0 1 NW 0 96.6 638
22:22:45 2 980 0 0 S 0 96.6 644
22:25:47 2 980 0 2 W 0 96.6 641
22:28:48 2 981 0 2 SW 0 96.6 638
22:31:47 2 980 0 3 SW 0 96.6 627
22:34:49 2 980 0 1 W 0 96.6 632
22:37:47 2 981 0 0 W 0 96.6 629
22:40:48 2 980 0 4 S 0 96.6 641
22:43:48 2 980 0 0 NW 0 96.6 495
22:46:48 2 980 0 3 W 0 96.6 492
22:49:47 2 980 0 2 SW 0 96.6 481
22:52:46 3 980 0 4 S 0 96.6 474
22:55:46 3 980 0 0 O 0 96.6 471
22:58:46 3 980 0 2 W 0 96.6 475
23:01:47 3 980 0 3 W 0 96.6 480
23:04:48 2 980 0 0 SW 0 96.6 480
23:07:46 2 980 0 3 W 0 96.6 486
23:10:47 2 980 0 1 W 0 96.6 483
23:13:47 2 980 0 2 S 0 96.6 477
23:16:47 2 980 0 0 S 0 96.6 483
23:19:47 2 980 0 0 SW 0 96.6 486
23:22:49 2 980 0 0 SO 0 96.6 486
23:25:48 2 981 0 1 S 0 96.6 477
23:28:50 2 980 0 0 SW 0 96.6 486
23:31:46 2 980 0 0 S 0 96.6 489
23:34:45 2 980 0 0 S 0 96.6 489
23:37:47 2 980 0 0 W 0 96.6 486
23:40:48 2 980 0 0 W 0 96.6 483
23:43:49 2 980 0 0 NW 0 96.6 483
23:46:46 2 980 0 2 W 0 96.6 481
23:49:47 2 980 0 0 S 0 96.6 489
23:52:50 3 980 0 2 SW 0 96.6 484
23:55:44 3 980 0 1 W 0 96.6 471
23:58:47 3 980 0 1 S 0 96.6 466

Letzte Änderung : 04-Jan-2022
Copyright Jens Köhler, Wolfsburg, Obere Dorfstraße 10d